Location: Brno
(49.2000°N, 16.6330°E)
Time: 18:04:02
(UTC+02:00)

CARTOSAT-1 - Visible Passes

Search period start: 22 May 2015 00:00
Search period end: 01 June 2015 00:00
Orbit: 617 x 619 km, 97.8° (Epoch: 22 May)

Date Brightness Start Highest point End Pass type
(mag) Time Alt. Az. Time Alt. Az. Time Alt. Az.
22 May 4.7 21:39:29 11° SE 21:43:04 29° ENE 21:46:51 10° N visible
22 May 4.8 23:16:36 19° SSW 23:19:08 33° W 23:23:04 10° NNW visible
23 May 4.3 21:56:21 14° SE 21:59:44 41° ENE 22:03:49 10° N visible
23 May 5.4 23:33:29 15° SW 23:36:02 23° W 23:39:29 10° NW visible
24 May 3.8 22:13:14 17° SSE 22:16:25 59° ENE 22:20:43 10° N visible
24 May 5.8 23:50:22 11° SW 23:52:59 17° W 23:55:41 10° NW visible
25 May 3.5 22:30:08 19° SSE 22:33:10 86° ENE 22:37:31 10° NNW visible
26 May 6.1 00:08:29 10° WSW 00:09:59 11° W 00:11:17 10° WNW visible
26 May 3.8 22:47:02 20° S 22:49:56 65° WSW 22:54:15 10° NNW visible
27 May 5.1 21:27:30 10° ESE 21:30:52 23° ENE 21:34:20 10° N visible
27 May 4.4 23:03:55 18° SSW 23:06:47 44° W 23:10:55 10° NNW visible
28 May 4.6 21:43:43 10° SE 21:47:31 32° ENE 21:51:24 10° N visible
28 May 5.0 23:20:50 16° SSW 23:23:39 30° W 23:27:28 10° NNW visible
29 May 4.1 22:00:37 13° SE 22:04:13 45° ENE 22:08:22 10° N visible
29 May 5.5 23:37:44 12° SW 23:40:35 21° W 23:43:52 10° NW visible
30 May 3.7 22:17:32 16° SSE 22:20:56 66° ENE 22:25:14 10° N visible
30 May 5.9 23:55:01 10° SW 23:57:34 15° W 23:59:59 10° NW visible
31 May 3.6 22:34:27 17° SSE 22:37:42 85° WSW 22:42:04 10° NNW visible
